Date,TemperatureHighF,TemperatureAvgF,TemperatureLowF,DewpointHighF,DewpointAvgF,DewpointLowF,HumidityHigh,HumidityAvg,HumidityLow,PressureMaxIn,PressureMinIn,WindSpeedMaxMPH,WindSpeedAvgMPH,GustSpeedMaxMPH,PrecipitationSumIn
2013-10-10,62.1,51.6,39.5,49.6,43.8,37.9,98,77,44,30.32,30.18,2,0,5,0.00
2013-10-11,68.1,54.3,46.0,51.8,46.4,43.1,92,76,49,30.17,30.11,3,0,7,0.00
2013-10-12,71.5,54.6,43.1,53.5,47.8,41.7,100,80,49,30.36,30.17,8,2,15,0.00
2013-10-13,70.1,57.0,47.3,51.5,47.7,44.6,97,73,41,30.41,30.30,3,0,13,0.00
2013-10-14,63.5,55.0,45.8,54.8,50.0,44.7,99,84,65,30.34,30.23,2,0,5,0.00
2013-10-15,63.5,58.6,53.9,56.8,54.5,51.3,99,87,75,30.26,30.10,3,0,9,0.00
2013-10-16,67.3,58.0,49.2,54.9,51.3,48.4,99,80,55,30.10,29.83,5,0,9,0.00
2013-10-17,69.4,60.1,53.8,55.8,50.5,44.5,94,73,43,29.86,29.62,4,1,11,0.15
2013-10-18,59.3,53.9,46.8,53.7,45.9,35.6,100,76,46,29.93,29.56,4,1,12,0.29
2013-10-19,63.5,52.3,40.5,48.1,41.3,37.7,96,68,45,29.93,29.67,6,1,14,0.05
2013-10-20,53.9,48.6,41.1,48.6,39.5,34.9,90,72,51,30.01,29.66,7,2,18,0.00
2013-10-21,63.7,53.1,41.3,41.1,38.2,36.1,88,59,38,30.09,29.90,8,2,13,0.00
2013-10-22,56.2,49.8,39.6,49.1,40.7,32.1,94,72,49,29.89,29.73,8,2,15,0.12
2013-10-23,51.4,42.2,34.1,38.1,33.4,30.6,89,72,49,29.80,29.62,3,0,7,0.00
2013-10-24,44.6,39.1,32.9,34.9,32.0,29.8,92,76,57,29.91,29.70,6,1,14,0.00
2013-10-25,45.1,39.4,35.3,34.4,29.7,24.8,92,69,47,30.15,29.91,8,1,16,0.00
2013-10-26,48.2,42.7,37.2,35.3,30.8,24.3,88,64,40,30.14,29.83,9,3,15,0.00
2013-10-27,48.5,43.5,37.9,38.9,32.1,27.6,78,65,46,30.06,29.78,7,2,12,0.00
2013-10-28,52.9,41.0,29.3,36.0,29.2,18.6,83,64,40,30.37,30.05,11,3,15,0.00
2013-10-29,43.8,31.9,22.1,24.9,19.4,13.9,90,63,33,30.48,30.37,4,0,14,0.00
2013-10-30,47.0,38.2,30.9,36.2,30.6,20.3,95,74,55,30.35,30.21,3,0,6,0.00
2013-10-31,59.9,46.7,32.8,58.4,45.9,32.6,100,97,91,30.25,29.66,8,2,15,0.39